• In Hungary
  • List of Countries
  • For 7 days
  • Water Temperature
  • Satellite Maps
  • Weather Map
  • News
  • Weather Widgets
  • user-avatar
    Login

    Hourly Weather Monastyriska

    Today, 21 September, Friday

    Time Temperature Precipitation Wind Pressure Humidity
    00:00 +16°C° 0 mm 0 mps 731 mmHg 75%
    01:00 +15°C° 0 mm 0 mps 731 mmHg 76%
    02:00 +15°C° 0 mm 0 mps 731 mmHg 77%
    03:00 +16°C° 0 mm 1 mps 730 mmHg 77%
    04:00 +15°C° 0 mm 1 mps 730 mmHg 78%
    05:00 +15°C° 0 mm 1 mps 730 mmHg 78%
    06:00 +16°C° 0 mm 1 mps 730 mmHg 75%
    07:00 +18°C° 0 mm 1 mps 730 mmHg 72%
    08:00 +18°C° 0 mm 1 mps 730 mmHg 69%
    09:00 +19°C° 0 mm 2 mps 730 mmHg 62%
    10:00 +21°C° 0 mm 2 mps 730 mmHg 56%
    11:00 +24°C° 0 mm 3 mps 730 mmHg 50%
    12:00 +25°C° 0 mm 3 mps 730 mmHg 48%
    13:00 +25°C° 0 mm 3 mps 730 mmHg 46%
    14:00 +26°C° 0 mm 4 mps 729 mmHg 44%
    15:00 +26°C° 0 mm 3 mps 729 mmHg 47%
    16:00 +25°C° 0 mm 3 mps 729 mmHg 50%
    17:00 +25°C° 0 mm 3 mps 728 mmHg 53%
    18:00 +22°C° 0 mm 3 mps 728 mmHg 54%
    19:00 +20°C° 0 mm 3 mps 728 mmHg 54%
    20:00 +19°C° 0 mm 3 mps 728 mmHg 55%
    21:00 +18°C° 0 mm 2 mps 728 mmHg 57%
    22:00 +17°C° 0 mm 2 mps 728 mmHg 58%
    23:00 +17°C° 0 mm 2 mps 728 mmHg 59%

    Tomorrow, 22 September, Saturday

    Time Temperature Precipitation Wind Pressure Humidity
    00:00 +16°C° 0 mm 2 mps 728 mmHg 61%
    01:00 +16°C° 0 mm 2 mps 728 mmHg 63%
    02:00 +16°C° 0 mm 1 mps 728 mmHg 65%
    03:00 +16°C° 0 mm 2 mps 727 mmHg 65%
    04:00 +15°C° 0 mm 2 mps 727 mmHg 65%
    05:00 +15°C° 0 mm 2 mps 727 mmHg 65%
    06:00 +16°C° 0 mm 2 mps 727 mmHg 63%
    07:00 +17°C° 0 mm 2 mps 728 mmHg 62%
    08:00 +18°C° 0 mm 2 mps 728 mmHg 60%
    09:00 +19°C° 0 mm 4 mps 728 mmHg 59%
    10:00 +20°C° 0 mm 5 mps 729 mmHg 59%
    11:00 +21°C° 0 mm 6 mps 729 mmHg 58%
    12:00 +20°C° 0 mm 6 mps 729 mmHg 59%
    13:00 +17°C° 0 mm 6 mps 729 mmHg 61%
    14:00 +16°C° 0 mm 6 mps 729 mmHg 62%
    15:00 +14°C° 0.4 mm 6 mps 729 mmHg 68%
    16:00 +13°C° 0.4 mm 5 mps 729 mmHg 74%
    17:00 +10°C° 0.4 mm 5 mps 729 mmHg 80%
    18:00 +10°C° 1.5 mm 4 mps 729 mmHg 84%
    19:00 +10°C° 1.5 mm 4 mps 730 mmHg 87%
    20:00 +9°C° 1.5 mm 3 mps 730 mmHg 91%
    21:00 +9°C° 0.2 mm 3 mps 730 mmHg 91%
    22:00 +8°C° 0.2 mm 3 mps 731 mmHg 91%
    23:00 +8°C° 0.2 mm 2 mps 731 mmHg 91%

    Day after tomorrow, 23 September, Sunday

    Time Temperature Precipitation Wind Pressure Humidity
    00:00 +8°C° 0 mm 2 mps 731 mmHg 91%
    01:00 +7°C° 0 mm 2 mps 731 mmHg 90%
    02:00 +7°C° 0 mm 2 mps 731 mmHg 89%
    03:00 +7°C° 0 mm 3 mps 731 mmHg 89%
    04:00 +7°C° 0 mm 3 mps 731 mmHg 88%
    05:00 +7°C° 0 mm 3 mps 731 mmHg 87%
    06:00 +8°C° 0 mm 3 mps 731 mmHg 84%
    07:00 +8°C° 0 mm 4 mps 731 mmHg 81%
    08:00 +10°C° 0 mm 4 mps 732 mmHg 78%
    09:00 +10°C° 0 mm 5 mps 732 mmHg 70%
    10:00 +13°C° 0 mm 5 mps 732 mmHg 62%
    11:00 +15°C° 0 mm 6 mps 732 mmHg 54%
    12:00 +15°C° 0 mm 6 mps 732 mmHg 52%
    13:00 +16°C° 0 mm 5 mps 732 mmHg 49%
    14:00 +16°C° 0 mm 5 mps 732 mmHg 47%
    15:00 +17°C° 0 mm 4 mps 732 mmHg 51%
    16:00 +16°C° 0 mm 3 mps 731 mmHg 54%
    17:00 +16°C° 0 mm 3 mps 731 mmHg 58%
    18:00 +14°C° 0 mm 2 mps 731 mmHg 63%
    19:00 +13°C° 0 mm 2 mps 731 mmHg 67%
    20:00 +10°C° 0 mm 2 mps 731 mmHg 71%
    21:00 +10°C° 0 mm 2 mps 731 mmHg 71%
    22:00 +10°C° 0 mm 2 mps 730 mmHg 70%
    23:00 +10°C° 0 mm 3 mps 730 mmHg 70%

    24 September, Monday

    Time Temperature Precipitation Wind Pressure Humidity
    00:00 +10°C° 0 mm 3 mps 729 mmHg 69%
    01:00 +10°C° 0 mm 3 mps 728 mmHg 67%
    02:00 +10°C° 0 mm 3 mps 728 mmHg 66%
    03:00 +10°C° 0 mm 4 mps 727 mmHg 65%
    04:00 +10°C° 0 mm 4 mps 726 mmHg 63%
    05:00 +10°C° 0 mm 4 mps 725 mmHg 62%
    06:00 +10°C° 0 mm 5 mps 723 mmHg 61%
    07:00 +12°C° 0 mm 5 mps 722 mmHg 61%
    08:00 +13°C° 0 mm 6 mps 721 mmHg 60%
    09:00 +15°C° 0.3 mm 6 mps 721 mmHg 59%
    10:00 +19°C° 0.3 mm 6 mps 720 mmHg 58%
    11:00 +21°C° 0.3 mm 7 mps 720 mmHg 58%
    12:00 +20°C° 0.2 mm 7 mps 719 mmHg 62%
    13:00 +18°C° 0.2 mm 7 mps 719 mmHg 66%
    14:00 +17°C° 0.2 mm 7 mps 718 mmHg 70%
    15:00 +16°C° 0.1 mm 8 mps 719 mmHg 67%
    16:00 +15°C° 0.1 mm 9 mps 719 mmHg 64%
    17:00 +13°C° 0.1 mm 11 mps 720 mmHg 62%
    18:00 +12°C° 0 mm 11 mps 721 mmHg 61%
    19:00 +11°C° 0 mm 11 mps 722 mmHg 60%
    20:00 +8°C° 0 mm 12 mps 723 mmHg 60%
    21:00 +8°C° 0 mm 11 mps 723 mmHg 60%
    22:00 +8°C° 0 mm 11 mps 724 mmHg 61%
    23:00 +8°C° 0 mm 11 mps 724 mmHg 62%

    25 September, Tuesday

    Time Temperature Precipitation Wind Pressure Humidity
    00:00 +7°C° 0 mm 11 mps 725 mmHg 63%
    01:00 +7°C° 0 mm 12 mps 726 mmHg 65%
    02:00 +7°C° 0 mm 12 mps 726 mmHg 66%
    03:00 +5°C° 0 mm 12 mps 727 mmHg 67%
    04:00 +6°C° 0 mm 11 mps 727 mmHg 68%
    05:00 +4°C° 0 mm 11 mps 728 mmHg 68%
    06:00 +4°C° 0 mm 11 mps 729 mmHg 69%
    07:00 +4°C° 0 mm 11 mps 729 mmHg 69%
    08:00 +5°C° 0 mm 10 mps 730 mmHg 69%
    09:00 +5°C° 0.1 mm 10 mps 730 mmHg 69%
    10:00 +5°C° 0.1 mm 10 mps 731 mmHg 68%
    11:00 +5°C° 0.1 mm 10 mps 731 mmHg 68%
    12:00 +6°C° 0.1 mm 10 mps 731 mmHg 66%
    13:00 +6°C° 0.1 mm 10 mps 732 mmHg 63%
    14:00 +7°C° 0.1 mm 10 mps 732 mmHg 61%
    15:00 +7°C° 0.2 mm 9 mps 732 mmHg 61%
    16:00 +7°C° 0.2 mm 9 mps 732 mmHg 62%
    17:00 +6°C° 0.2 mm 8 mps 733 mmHg 63%
    18:00 +6°C° 0 mm 7 mps 733 mmHg 64%
    19:00 +5°C° 0 mm 6 mps 733 mmHg 65%
    20:00 +5°C° 0 mm 5 mps 734 mmHg 66%
    21:00 +5°C° 0 mm 5 mps 733 mmHg 66%
    22:00 +5°C° 0 mm 5 mps 733 mmHg 67%
    23:00 +3°C° 0 mm 6 mps 733 mmHg 68%

    26 September, Wednesday

    Time Temperature Precipitation Wind Pressure Humidity
    00:00 +3°C° 0.1 mm 6 mps 733 mmHg 67%
    01:00 +3°C° 0.1 mm 6 mps 732 mmHg 67%
    02:00 +3°C° 0.1 mm 6 mps 732 mmHg 67%
    03:00 +3°C° 0.6 mm 6 mps 731 mmHg 70%
    04:00 +3°C° 0.6 mm 6 mps 731 mmHg 73%
    05:00 +4°C° 0.6 mm 6 mps 730 mmHg 76%
    06:00 +4°C° 0.6 mm 6 mps 730 mmHg 79%
    07:00 +4°C° 0.6 mm 6 mps 731 mmHg 81%
    08:00 +4°C° 0.6 mm 6 mps 731 mmHg 83%
    09:00 +5°C° 0.1 mm 6 mps 731 mmHg 81%
    10:00 +6°C° 0.1 mm 5 mps 732 mmHg 79%
    11:00 +7°C° 0.1 mm 5 mps 732 mmHg 77%
    12:00 +8°C° 0.2 mm 5 mps 733 mmHg 74%
    13:00 +8°C° 0.2 mm 5 mps 733 mmHg 72%
    14:00 +9°C° 0.2 mm 5 mps 734 mmHg 70%
    15:00 +10°C° 0.2 mm 4 mps 734 mmHg 71%
    16:00 +10°C° 0.2 mm 4 mps 734 mmHg 72%
    17:00 +10°C° 0.2 mm 3 mps 735 mmHg 74%
    18:00 +8°C° 0 mm 3 mps 735 mmHg 78%
    19:00 +7°C° 0 mm 3 mps 736 mmHg 81%
    20:00 +6°C° 0 mm 2 mps 736 mmHg 85%
    21:00 +6°C° 0 mm 2 mps 736 mmHg 87%
    22:00 +5°C° 0 mm 2 mps 737 mmHg 89%
    23:00 +4°C° 0 mm 3 mps 737 mmHg 90%
    Show more